EZS49KT EHAM-LFSB

Flight info

Callsign EZS49KT
Flight time 0h 47m
Altitude 35000
Route LOPIK N852 SUTAL DCT GTQ DCT POGOL DCT LASAT A242 ARPUS
Aircraft A320/M-SDE3FGHIRWY/LB1

Departure

Time 2026-05-07 17:58
Airport Amsterdam Airport Schiphol (EHAM)

Arrival

Time 2026-05-07 18:46
Airport EuroAirport Basel–Mulhouse–Freiburg (LFSB)
Time Latitude Longitude Altitude Speed Heading
2026-05-07 17:17 52.30983 4.75357 -1 ft 0 kts 148°
2026-05-07 17:47 52.30998 4.75343 -1 ft 4 kts 152°
2026-05-07 17:47 52.31018 4.75322 -1 ft 4 kts 108°
2026-05-07 17:47 52.31018 4.75292 -1 ft 3 kts 70°
2026-05-07 17:47 52.31016 4.75287 -1 ft 0 kts 70°
2026-05-07 17:50 52.31017 4.75288 -1 ft 0 kts 70°
2026-05-07 17:50 52.31037 4.75294 -1 ft 5 kts 13°
2026-05-07 17:50 52.31073 4.75320 -1 ft 9 kts 32°
2026-05-07 17:50 52.31121 4.75425 -1 ft 13 kts 55°
2026-05-07 17:51 52.31200 4.75462 -1 ft 13 kts 357°
2026-05-07 17:51 52.31296 4.75454 -1 ft 6 kts 356°
2026-05-07 17:51 52.31335 4.75451 -1 ft 5 kts 356°
2026-05-07 17:51 52.31374 4.75447 -1 ft 6 kts 356°
2026-05-07 17:52 52.31407 4.75444 -1 ft 3 kts 356°
2026-05-07 17:52 52.31410 4.75443 -1 ft 0 kts 356°
2026-05-07 17:52 52.31439 4.75441 -1 ft 10 kts 356°
2026-05-07 17:53 52.31488 4.75430 -1 ft 0 kts 335°
2026-05-07 17:53 52.31489 4.75429 -1 ft 2 kts 333°
2026-05-07 17:53 52.31507 4.75304 -1 ft 19 kts 268°
2026-05-07 17:54 52.31499 4.75073 -1 ft 20 kts 267°
2026-05-07 17:54 52.31492 4.74856 -1 ft 18 kts 267°
2026-05-07 17:54 52.31486 4.74659 -1 ft 17 kts 266°
2026-05-07 17:54 52.31480 4.74479 -1 ft 15 kts 267°
2026-05-07 17:55 52.31474 4.74320 -1 ft 14 kts 266°
2026-05-07 17:55 52.31447 4.74184 -1 ft 12 kts 229°
2026-05-07 17:55 52.31372 4.74136 -1 ft 13 kts 182°
2026-05-07 17:55 52.31259 4.74126 -1 ft 19 kts 183°
2026-05-07 17:56 52.31117 4.74113 -1 ft 21 kts 183°
2026-05-07 17:56 52.30964 4.74099 -1 ft 23 kts 183°
2026-05-07 17:56 52.30800 4.74084 -1 ft 24 kts 182°
2026-05-07 17:56 52.30681 4.74073 -1 ft 12 kts 183°
2026-05-07 17:57 52.30621 4.74065 -1 ft 6 kts 193°
2026-05-07 17:57 52.30596 4.74011 -1 ft 17 kts 258°
2026-05-07 17:57 52.30688 4.73870 -2 ft 13 kts 332°
2026-05-07 17:57 52.30763 4.73811 -1 ft 11 kts 339°
2026-05-07 17:58 52.30924 4.73805 -1 ft 54 kts
2026-05-07 17:58 52.31535 4.73861 -3 ft 119 kts
2026-05-07 17:58 52.32525 4.73956 111 ft 157 kts
2026-05-07 17:58 52.33613 4.74049 787 ft 156 kts
2026-05-07 17:59 52.34691 4.74597 1274 ft 173 kts 24°
2026-05-07 17:59 52.35862 4.75423 1630 ft 194 kts 25°
2026-05-07 17:59 52.37055 4.76636 2009 ft 214 kts 51°
2026-05-07 17:59 52.37543 4.78901 2796 ft 218 kts 92°
2026-05-07 18:00 52.37253 4.81305 3596 ft 223 kts 105°
2026-05-07 18:00 52.36556 4.83522 4414 ft 226 kts 134°
2026-05-07 18:00 52.35198 4.84885 5021 ft 241 kts 167°
2026-05-07 18:00 52.33465 4.85042 5564 ft 258 kts 181°
2026-05-07 18:01 52.31657 4.84972 6495 ft 260 kts 182°
2026-05-07 18:01 52.29831 4.84901 7336 ft 265 kts 182°
2026-05-07 18:01 52.27987 4.84844 8172 ft 271 kts 180°
2026-05-07 18:01 52.26078 4.85296 8971 ft 278 kts 163°
2026-05-07 18:02 52.22807 4.88534 10360 ft 299 kts 141°
2026-05-07 18:02 52.21126 4.90741 10630 ft 322 kts 142°
2026-05-07 18:02 52.19314 4.93094 10982 ft 340 kts 143°
2026-05-07 18:03 52.17242 4.94975 11594 ft 345 kts 161°
2026-05-07 18:03 52.14947 4.96192 12314 ft 349 kts 163°
2026-05-07 18:03 52.12617 4.97393 13053 ft 353 kts 163°
2026-05-07 18:03 52.10261 4.98598 13790 ft 357 kts 163°
2026-05-07 18:04 52.07928 4.99790 14443 ft 361 kts 164°
2026-05-07 18:04 52.05525 5.01032 15095 ft 364 kts 163°
2026-05-07 18:04 52.03122 5.02376 15728 ft 368 kts 161°
2026-05-07 18:04 52.00700 5.03815 16375 ft 371 kts 161°
2026-05-07 18:05 51.98249 5.05312 16686 ft 385 kts 160°
2026-05-07 18:05 51.95692 5.06877 16851 ft 400 kts 160°
2026-05-07 18:05 51.93061 5.08475 17253 ft 407 kts 160°
2026-05-07 18:05 51.90394 5.10079 17774 ft 411 kts 161°
2026-05-07 18:06 51.87696 5.11682 18305 ft 414 kts 161°
2026-05-07 18:06 51.84977 5.13285 18772 ft 417 kts 161°
2026-05-07 18:06 51.82241 5.14897 19239 ft 420 kts 161°
2026-05-07 18:06 51.79487 5.16515 19708 ft 423 kts 161°
2026-05-07 18:07 51.76714 5.18141 20167 ft 425 kts 161°
2026-05-07 18:07 51.73920 5.19775 20628 ft 428 kts 161°
2026-05-07 18:07 51.71148 5.21391 21069 ft 430 kts 161°
2026-05-07 18:07 51.68322 5.23041 21500 ft 433 kts 161°
2026-05-07 18:08 51.65486 5.24702 21930 ft 435 kts 161°
2026-05-07 18:08 51.62634 5.26371 22344 ft 438 kts 162°
2026-05-07 18:08 51.59759 5.28047 22752 ft 440 kts 162°
2026-05-07 18:08 51.56867 5.29729 23166 ft 443 kts 162°
2026-05-07 18:09 51.53961 5.31421 23552 ft 445 kts 162°
2026-05-07 18:09 51.51047 5.33117 23894 ft 448 kts 162°
2026-05-07 18:09 51.48106 5.34828 24232 ft 450 kts 162°
2026-05-07 18:09 51.45160 5.36543 24562 ft 452 kts 162°
2026-05-07 18:10 51.42204 5.38259 24863 ft 453 kts 162°
2026-05-07 18:10 51.39233 5.39975 25191 ft 455 kts 162°
2026-05-07 18:10 51.36243 5.41696 25497 ft 457 kts 162°
2026-05-07 18:10 51.33243 5.43419 25793 ft 459 kts 162°
2026-05-07 18:11 51.30235 5.45147 26096 ft 460 kts 162°
2026-05-07 18:11 51.28229 5.46302 26285 ft 462 kts 162°
2026-05-07 18:11 51.24177 5.48629 26674 ft 464 kts 162°
2026-05-07 18:11 51.21175 5.50352 26949 ft 466 kts 162°
2026-05-07 18:12 51.18117 5.52105 27203 ft 468 kts 162°
2026-05-07 18:12 51.15052 5.53857 27474 ft 469 kts 162°
2026-05-07 18:12 51.11966 5.55614 27725 ft 471 kts 162°
2026-05-07 18:12 51.08880 5.57370 28054 ft 471 kts 162°
2026-05-07 18:13 51.05795 5.59126 28455 ft 470 kts 162°
2026-05-07 18:13 51.02720 5.60871 28838 ft 469 kts 162°
2026-05-07 18:13 50.99630 5.62622 29241 ft 467 kts 162°
2026-05-07 18:13 50.96593 5.64337 29637 ft 467 kts 162°
2026-05-07 18:14 50.93534 5.66062 30014 ft 466 kts 162°
2026-05-07 18:14 50.90482 5.67784 30347 ft 465 kts 162°
2026-05-07 18:14 50.87437 5.69510 30658 ft 465 kts 162°
2026-05-07 18:14 50.84397 5.71232 30968 ft 464 kts 162°
2026-05-07 18:15 50.81353 5.72951 31282 ft 464 kts 162°
2026-05-07 18:15 50.78316 5.74660 31606 ft 463 kts 162°
2026-05-07 18:15 50.75280 5.76367 31933 ft 462 kts 162°
2026-05-07 18:15 50.72250 5.78070 32224 ft 462 kts 162°
2026-05-07 18:16 50.69217 5.79768 32414 ft 464 kts 163°
2026-05-07 18:16 50.66202 5.81449 32610 ft 466 kts 163°
2026-05-07 18:16 50.63142 5.83152 32885 ft 466 kts 163°
2026-05-07 18:16 50.60082 5.84850 33177 ft 466 kts 163°
2026-05-07 18:17 50.57024 5.86548 33490 ft 466 kts 163°
2026-05-07 18:17 50.53966 5.88249 33801 ft 465 kts 163°
2026-05-07 18:17 50.50917 5.89948 34105 ft 464 kts 163°
2026-05-07 18:17 50.47867 5.91644 34346 ft 465 kts 163°
2026-05-07 18:18 50.44815 5.93334 34577 ft 465 kts 163°
2026-05-07 18:18 50.42796 5.94447 34737 ft 465 kts 163°
2026-05-07 18:18 50.39736 5.96127 34969 ft 465 kts 163°
2026-05-07 18:19 50.33624 5.99496 35060 ft 465 kts 163°
2026-05-07 18:19 50.27520 6.02860 35061 ft 465 kts 163°
2026-05-07 18:20 50.21407 6.06207 35065 ft 465 kts 163°
2026-05-07 18:20 50.15287 6.09541 35059 ft 466 kts 163°
2026-05-07 18:21 50.09204 6.12857 35057 ft 466 kts 163°
2026-05-07 18:21 50.03080 6.16186 35050 ft 466 kts 163°
2026-05-07 18:22 49.96952 6.19510 35053 ft 466 kts 163°
2026-05-07 18:22 49.90820 6.22823 35050 ft 467 kts 163°
2026-05-07 18:23 49.84686 6.26135 35052 ft 467 kts 163°
2026-05-07 18:23 49.78555 6.29439 35042 ft 467 kts 163°
2026-05-07 18:24 49.72420 6.32734 35038 ft 467 kts 163°
2026-05-07 18:24 49.66311 6.35995 35041 ft 467 kts 163°
2026-05-07 18:25 49.60157 6.39272 35047 ft 468 kts 163°
2026-05-07 18:25 49.53999 6.42546 35041 ft 468 kts 163°
2026-05-07 18:26 49.47841 6.45824 35046 ft 468 kts 163°
2026-05-07 18:26 49.41691 6.49080 34664 ft 466 kts 163°
2026-05-07 18:26 49.38621 6.50696 33872 ft 467 kts 163°
2026-05-07 18:27 49.35547 6.52312 32937 ft 468 kts 163°
2026-05-07 18:27 49.32494 6.53920 31995 ft 470 kts 163°
2026-05-07 18:27 49.29399 6.55552 31050 ft 472 kts 163°
2026-05-07 18:27 49.26288 6.57193 30102 ft 473 kts 163°
2026-05-07 18:28 49.23169 6.58834 29335 ft 474 kts 163°
2026-05-07 18:28 49.20039 6.60479 29081 ft 476 kts 163°
2026-05-07 18:28 49.16904 6.62117 29062 ft 477 kts 163°
2026-05-07 18:29 49.10604 6.65397 29052 ft 479 kts 163°
2026-05-07 18:29 49.04291 6.68699 29063 ft 480 kts 162°
2026-05-07 18:30 48.98024 6.72197 29061 ft 480 kts 161°
2026-05-07 18:30 48.91787 6.75852 29061 ft 480 kts 161°
2026-05-07 18:31 48.85545 6.79474 29062 ft 479 kts 161°
2026-05-07 18:31 48.79318 6.83020 28364 ft 475 kts 161°
2026-05-07 18:31 48.76251 6.84755 27169 ft 477 kts 161°
2026-05-07 18:32 48.73135 6.86516 25988 ft 479 kts 161°
2026-05-07 18:32 48.69999 6.88292 24796 ft 480 kts 161°
2026-05-07 18:32 48.66868 6.90071 23606 ft 482 kts 161°
2026-05-07 18:32 48.63724 6.91856 22412 ft 480 kts 161°
2026-05-07 18:33 48.60669 6.93588 21759 ft 455 kts 161°
2026-05-07 18:33 48.57754 6.95239 20472 ft 442 kts 161°
2026-05-07 18:33 48.54881 6.96861 18763 ft 442 kts 161°
2026-05-07 18:33 48.51988 6.98483 16837 ft 444 kts 161°
2026-05-07 18:34 48.49146 7.00073 15449 ft 421 kts 161°
2026-05-07 18:34 48.46410 7.01582 14245 ft 426 kts 161°
2026-05-07 18:34 48.43665 7.03067 13596 ft 421 kts 161°
2026-05-07 18:34 48.40962 7.04555 13172 ft 409 kts 161°
2026-05-07 18:35 48.38300 7.06044 13034 ft 407 kts 161°
2026-05-07 18:35 48.35645 7.07540 13066 ft 408 kts 160°
2026-05-07 18:35 48.32992 7.09038 13061 ft 408 kts 160°
2026-05-07 18:35 48.30334 7.10536 13061 ft 408 kts 160°
2026-05-07 18:36 48.27681 7.12026 13063 ft 407 kts 160°
2026-05-07 18:36 48.25021 7.13513 13060 ft 408 kts 161°
2026-05-07 18:36 48.22358 7.14996 13059 ft 408 kts 161°
2026-05-07 18:36 48.19700 7.16470 13057 ft 408 kts 161°
2026-05-07 18:37 48.17035 7.17944 13058 ft 408 kts 161°
2026-05-07 18:37 48.14376 7.19418 13060 ft 408 kts 161°
2026-05-07 18:37 48.11710 7.20898 13055 ft 408 kts 161°
2026-05-07 18:37 48.09049 7.22374 13058 ft 408 kts 161°
2026-05-07 18:38 48.06388 7.23850 13059 ft 408 kts 161°
2026-05-07 18:38 48.03735 7.25317 12742 ft 402 kts 161°
2026-05-07 18:38 48.01127 7.26757 12011 ft 398 kts 161°
2026-05-07 18:38 47.98545 7.28179 11327 ft 394 kts 162°
2026-05-07 18:39 47.95978 7.29591 10796 ft 392 kts 162°
2026-05-07 18:39 47.93428 7.30993 10291 ft 389 kts 162°
2026-05-07 18:39 47.90895 7.32386 9758 ft 386 kts 162°
2026-05-07 18:39 47.88381 7.33769 9200 ft 383 kts 162°
2026-05-07 18:40 47.85889 7.35138 8652 ft 380 kts 162°
2026-05-07 18:40 47.83447 7.36477 8122 ft 378 kts 161°
2026-05-07 18:40 47.80987 7.37824 7578 ft 376 kts 161°
2026-05-07 18:40 47.78539 7.39179 7058 ft 373 kts 160°
2026-05-07 18:41 47.76147 7.40667 6538 ft 372 kts 158°
2026-05-07 18:41 47.73831 7.42262 5995 ft 355 kts 155°
2026-05-07 18:41 47.71699 7.43822 5454 ft 330 kts 154°
2026-05-07 18:41 47.69701 7.45307 4932 ft 311 kts 154°
2026-05-07 18:42 47.67806 7.46702 4385 ft 296 kts 154°
2026-05-07 18:42 47.65999 7.48010 3857 ft 283 kts 153°
2026-05-07 18:42 47.64259 7.49267 3321 ft 272 kts 149°
2026-05-07 18:42 47.62888 7.51038 2706 ft 256 kts 121°
2026-05-07 18:43 47.62333 7.53339 2363 ft 218 kts 94°
2026-05-07 18:43 47.62475 7.55340 2380 ft 177 kts 77°
2026-05-07 18:43 47.62707 7.57048 2315 ft 167 kts 77°
2026-05-07 18:43 47.62676 7.58632 2417 ft 153 kts 112°
2026-05-07 18:44 47.61969 7.59764 2203 ft 150 kts 153°
2026-05-07 18:44 47.60971 7.59821 1938 ft 146 kts 205°
2026-05-07 18:44 47.60225 7.58843 1592 ft 144 kts 235°
2026-05-07 18:44 47.59768 7.57553 1429 ft 141 kts 252°
2026-05-07 18:45 47.59488 7.56172 1215 ft 140 kts 259°
2026-05-07 18:45 47.59283 7.54765 1056 ft 139 kts 259°
2026-05-07 18:45 47.59063 7.53391 901 ft 129 kts 260°
2026-05-07 18:45 47.58886 7.52248 889 ft 88 kts 257°
2026-05-07 18:46 47.58819 7.51824 890 ft 15 kts 257°
2026-05-07 18:46 47.58847 7.51697 888 ft 15 kts 353°
2026-05-07 18:46 47.58956 7.51684 886 ft 16 kts 27°
2026-05-07 18:46 47.59038 7.51804 886 ft 18 kts 45°
2026-05-07 18:47 47.59128 7.51939 886 ft 20 kts 45°
2026-05-07 18:47 47.59228 7.52089 886 ft 21 kts 45°
2026-05-07 18:47 47.59300 7.52267 886 ft 20 kts 65°
2026-05-07 18:47 47.59361 7.52462 886 ft 22 kts 65°
2026-05-07 18:48 47.59424 7.52654 889 ft 16 kts 63°
2026-05-07 18:48 47.59469 7.52795 888 ft 14 kts 66°
2026-05-07 18:48 47.59478 7.52826 887 ft 2 kts 64°
2026-05-07 18:48 47.59513 7.52925 894 ft 11 kts 46°
2026-05-07 18:49 47.59584 7.52901 894 ft 10 kts 333°
2026-05-07 18:49 47.59640 7.52901 894 ft 3 kts 56°
2026-05-07 18:49 47.59653 7.52945 894 ft 6 kts 68°
2026-05-07 18:49 47.59669 7.53008 894 ft 10 kts 66°
2026-05-07 18:50 47.59696 7.53097 894 ft 9 kts 78°
2026-05-07 18:50 47.59692 7.53131 894 ft 1 kts 108°
2026-05-07 18:50 47.59687 7.53150 894 ft 7 kts 113°
2026-05-07 18:50 47.59676 7.53250 894 ft 0 kts 96°